Location: Unspecified
(48.7670°N, 0.0000°E)
Time: 02:51:56
(UTC+00:00)

Courier 1B - Pass Details

Date: 26 June 2019
Orbit: 963 x 1209 km, 28.3° (Epoch: 19 July)

Event Time Altitude Azimuth Distance (km) Brightness Sun altitude
Rises 20:33:19 0° 241° (WSW) 3,877 10.9 -4.1°
Reaches altitude 10° 20:39:26 10° 202° (SSW) 2,997 9.8 -4.8°
Maximum altitude 20:40:21 10° 195° (SSW) 2,989 9.8 -4.9°
Drops below altitude 10° 20:41:17 10° 188° (S) 3,019 9.7 -5.0°
Enters shadow 20:45:54 - 157° (SSE) 3,653 9.9 -5.6°
Sets 20:47:39 0° 149° (SSE) 4,044 - -5.8°
